Location: Mentone
(34.5413°N, 85.5351°W)
Time: 04:39:07
(UTC-05:00)

UOSAT-12 - Visible Passes

Search period start: 29 May 2016 00:00
Search period end: 08 June 2016 00:00
Orbit: 621 x 633 km, 64.6° (Epoch: 28 May)

Date Brightness Start Highest point End Pass type
(mag) Time Alt. Az. Time Alt. Az. Time Alt. Az.
29 May 9.4 00:40:43 20° NE 00:40:43 20° NE 00:42:11 10° NNE visible
29 May 9.6 02:17:59 12° NW 02:18:14 12° NW 02:20:05 10° NNW visible
30 May 9.1 00:59:41 26° N 00:59:41 26° N 01:01:56 10° NNE visible
30 May 9.8 23:41:19 12° NE 23:41:19 12° NE 23:41:41 10° NE visible
31 May 9.3 01:18:35 20° NNW 01:18:35 20° NNW 01:21:09 10° N visible
01 Jun 9.2 00:00:10 22° NNE 00:00:10 22° NNE 00:01:50 10° NNE visible
01 Jun 9.9 01:37:25 10° NW 01:37:59 10° NW 01:38:43 10° NW visible
02 Jun 9.0 00:18:54 28° NNW 00:18:54 28° NNW 00:21:29 10° NNE visible
02 Jun 9.3 23:00:17 17° NE 23:00:17 17° NE 23:01:25 10° NE visible
03 Jun 9.5 00:37:31 18° NW 00:37:31 18° NW 00:40:32 10° N visible
03 Jun 8.5 23:18:47 34° NNE 23:18:47 34° NNE 23:21:28 10° NNE visible
04 Jun 9.3 21:59:53 13° ENE 21:59:53 13° ENE 22:00:33 10° ENE visible
04 Jun 8.7 23:37:05 32° NW 23:37:05 32° NW 23:41:00 10° N visible
05 Jun 7.8 22:17:56 41° ENE 22:17:56 41° ENE 22:21:09 10° NE visible
05 Jun 9.7 23:55:07 12° WNW 23:57:05 16° NW 23:59:50 10° N visible
06 Jun 7.5 22:35:34 48° WSW 22:36:31 61° WNW 22:41:03 10° NNE visible
07 Jun 8.0 21:15:19 24° SE 21:16:34 27° ESE 21:20:25 10° NE visible
07 Jun 9.1 22:52:40 10° WSW 22:56:34 27° NW 23:00:28 10° N visible
